Pompano Beach, FL

4:31 PM EDT on May 24, 2018 (GMT -0400)
Pompano Beach

Weather History for KPMP - November, 2012

Change the Weather History Date:

Tuesday, November 13, 2012

  Actual Average Record
Temperature  
Mean Temperature 76 °F -  
Max Temperature 79 °F 82 °F 90 °F (1986)
Min Temperature 73 °F 64 °F 42 °F (1968)
Cooling Degree Days 11    
Growing Degree Days 26 (Base 50)    
Moisture  
Dew Point 66 °F    
Average Humidity 74    
Maximum Humidity 83    
Minimum Humidity 60    
Precipitation  
Precipitation 0.00 in - - ()
Sea Level Pressure  
Sea Level Pressure 30.10 in    
Wind  
Wind Speed 11 mph (ENE)    
Max Wind Speed 15 mph    
Max Gust Speed 20 mph    
Visibility 10 miles    
Events      
Averages and records for this station are not official NWS values.
T = Trace of Precipitation, MM = Missing Value Source: NWS Daily Summary

Daily Weather History Graph

Daily Weather History Graph

Search for Another Location

Airport or City:

Astronomy

Nov. 13, 2012 Rise Set
Actual Time 6:37 AM EST 5:31 PM EST
Civil Twilight 6:13 AM EST 5:55 PM EST
Nautical Twilight 5:45 AM EST 6:23 PM EST
Astronomical Twilight 5:18 AM EST 6:50 PM EST
Moon 6:13 AM EST (11/13) 5:25 PM EST (11/13)
Length of Visible Light 11h 42m
Length of Day
10h 53m
Waning Crescent, 0% of the Moon is Illuminated
Nov 13
Waning Crescent
Nov 13
New
Nov 20
First Quarter
Nov 28
Full
Dec 6
Last Quarter

Hourly Weather History & Observations

Time (EST) Temp. Dew Point Humidity Pressure Visibility Wind Dir Wind Speed Gust Speed Precip Events Conditions
12:32 AM 75.2 °F 69.8 °F 83% 30.13 in 10.0 mi ENE 11.5 mph 19.6 mph N/A   Mostly Cloudy
12:53 AM 75.0 °F 69.1 °F 82% 30.12 in 10.0 mi ENE 10.4 mph - N/A   Mostly Cloudy
1:25 AM 75.2 °F 69.8 °F 83% 30.11 in 10.0 mi ENE 11.5 mph - N/A   Scattered Clouds
1:53 AM 75.0 °F 68.0 °F 79% 30.10 in 10.0 mi ENE 11.5 mph - N/A   Partly Cloudy
2:53 AM 73.9 °F 68.0 °F 82% 30.09 in 10.0 mi ENE 9.2 mph - N/A   Partly Cloudy
3:16 AM 73.4 °F 68.0 °F 83% 30.09 in 10.0 mi ENE 8.1 mph - N/A   Mostly Cloudy
3:53 AM 73.9 °F 68.0 °F 82% 30.09 in 10.0 mi ENE 10.4 mph - N/A   Scattered Clouds
4:16 AM 73.4 °F 68.0 °F 83% 30.09 in 10.0 mi ENE 8.1 mph - N/A   Mostly Cloudy
4:53 AM 73.0 °F 66.9 °F 81% 30.09 in 10.0 mi ENE 8.1 mph - N/A   Scattered Clouds
5:53 AM 73.0 °F 66.0 °F 79% 30.11 in 10.0 mi ENE 5.8 mph - N/A   Clear
6:53 AM 73.9 °F 66.9 °F 79% 30.12 in 10.0 mi ENE 8.1 mph - N/A   Scattered Clouds
7:53 AM 75.0 °F 66.9 °F 76% 30.14 in 10.0 mi ENE 10.4 mph - N/A   Partly Cloudy
8:53 AM 77.0 °F 66.9 °F 71% 30.15 in 10.0 mi ENE 12.7 mph - N/A   Partly Cloudy
9:53 AM 77.0 °F 66.0 °F 69% 30.15 in 10.0 mi ENE 13.8 mph - N/A   Partly Cloudy
10:53 AM 78.1 °F 66.9 °F 68% 30.14 in 10.0 mi NE 10.4 mph - N/A   Partly Cloudy
11:53 AM 79.0 °F 64.9 °F 62% 30.12 in 10.0 mi ENE 12.7 mph - N/A   Mostly Cloudy
12:53 PM 79.0 °F 64.0 °F 60% 30.09 in 10.0 mi ENE 15.0 mph - N/A   Partly Cloudy
1:53 PM 78.1 °F 64.9 °F 64% 30.07 in 10.0 mi NE 11.5 mph - N/A   Clear
2:53 PM 77.0 °F 66.0 °F 69% 30.06 in 10.0 mi NE 10.4 mph - N/A   Partly Cloudy
3:53 PM 77.0 °F 66.0 °F 69% 30.07 in 10.0 mi NE 11.5 mph - N/A   Scattered Clouds
4:53 PM 75.9 °F 64.9 °F 69% 30.07 in 10.0 mi NE 10.4 mph - N/A   Partly Cloudy
5:53 PM 75.0 °F 66.0 °F 73% 30.07 in 10.0 mi NE 6.9 mph - N/A   Partly Cloudy
6:53 PM 75.0 °F 66.0 °F 73% 30.08 in 10.0 mi ENE 10.4 mph - N/A   Partly Cloudy
7:53 PM 75.0 °F 64.0 °F 69% 30.09 in 10.0 mi NE 10.4 mph - N/A   Clear
8:53 PM 75.0 °F 64.9 °F 71% 30.09 in 10.0 mi ENE 9.2 mph - N/A   Scattered Clouds
9:53 PM 75.0 °F 64.0 °F 69% 30.09 in 10.0 mi ENE 13.8 mph - N/A   Partly Cloudy
10:53 PM 73.9 °F 64.0 °F 71% 30.09 in 10.0 mi ENE 9.2 mph - N/A   Partly Cloudy
11:53 PM 75.0 °F 64.9 °F 71% 30.09 in 10.0 mi ENE 10.4 mph - N/A   Partly Cloudy